{"data":{"norad_id":60260,"epoch":"2026-05-25T04:13:12.150912Z","epoch_age_seconds":59830,"freshness":"FRESH","line1":"1 60260U 24131F   26145.17583508 -.00001672  00000+0 -44363-4 0  9991","line2":"2 60260  53.1604  56.8351 0001159  78.1742 281.9389 15.30188758103435","mean_motion":15.30188758,"eccentricity":0.0001159,"inclination_deg":53.1604,"raan_deg":56.8351,"arg_perigee_deg":78.1742,"mean_anomaly_deg":281.9389,"bstar":-4.4363e-5,"rev_number":10343,"period_min":94.106037080165,"perigee_km":474.45432881521,"apogee_km":476.04294360568,"semimajor_km":6853.3856362104,"source":"CELESTRAK","updated_at":"2026-05-25T13:38:19.199185Z"}}